Wilmington, DE

1:27 AM EST on February 25, 2018 (GMT -0500)
New Castle County

Weather History for KILG - February, 2014

Change the Weather History Date:

Thursday, February 27, 2014

  Actual Average Record
Temperature  
Mean Temperature 25 °F 38 °F  
Max Temperature 37 °F 47 °F 73 °F (1997)
Min Temperature 13 °F 29 °F 5 °F (1934)
Degree Days  
Heating Degree Days 40 27  
Month to date heating degree days 887 809  
Since 1 July heating degree days 3808 3596  
Cooling Degree Days 0 0  
Month to date cooling degree days 0 0  
Year to date cooling degree days 0 0  
Moisture  
Dew Point 6 °F    
Average Humidity 54    
Maximum Humidity 80    
Minimum Humidity 27    
Precipitation  
Precipitation T in 0.09 in 2.48 in (1921)
Month to date precipitation 5.35 2.58  
Year to date precipitation 8.58 5.59  
Snow  
Snow T in 0.20 in 3.00 in (1935)
Month to date snowfall 19.0 8.1  
Since 1 July snowfall 48.4 17.8  
Snow Depth 0.00 in    
Sea Level Pressure  
Sea Level Pressure 29.85 in    
Wind  
Wind Speed 14 mph (WNW)    
Max Wind Speed 32 mph    
Max Gust Speed 40 mph    
Visibility 10 miles    
Events Snow    
T = Trace of Precipitation, MM = Missing Value Source: NWS Daily Summary

Daily Weather History Graph

Daily Weather History Graph

Search for Another Location

Airport or City:

Trip Planner

Search our weather history database for the weather conditions in past years. The results will help you decide how hot, cold, wet, or windy it might be!

Date:

Astronomy

Feb. 27, 2014 Rise Set
Actual Time 6:38 AM EST 5:52 PM EST
Civil Twilight 6:11 AM EST 6:19 PM EST
Nautical Twilight 5:40 AM EST 6:50 PM EST
Astronomical Twilight 5:08 AM EST 7:21 PM EST
Moon 5:08 AM EST (2/27) 4:15 PM EST (2/27)
Length of Visible Light 12h 08m
Length of Day
11h 13m
Waning Crescent, 4% of the Moon is Illuminated
Feb 27
Waning Crescent
Mar 1
New
Mar 8
First Quarter
Mar 16
Full
Mar 23
Last Quarter

Hourly Weather History & Observations

Time (EST) Temp. Windchill Dew Point Humidity Pressure Visibility Wind Dir Wind Speed Gust Speed Precip Events Conditions
12:51 AM 18.0 °F 12.7 °F 6.1 °F 60% 29.90 in 10.0 mi West 3.5 mph - N/A   Clear
1:51 AM 18.0 °F - 6.1 °F 60% 29.88 in 10.0 mi Calm Calm - N/A   Clear
2:51 AM 18.0 °F - 7.0 °F 62% 29.85 in 10.0 mi Calm Calm - N/A   Clear
3:51 AM 21.0 °F 11.4 °F 6.1 °F 53% 29.81 in 10.0 mi SSE 8.1 mph - N/A   Clear
4:51 AM 14.0 °F 6.5 °F 8.1 °F 77% 29.80 in 10.0 mi WNW 4.6 mph - 0.00 in   Clear
5:51 AM 15.1 °F - 9.0 °F 77% 29.78 in 10.0 mi Calm Calm - N/A   Clear
6:51 AM 16.0 °F - 10.0 °F 77% 29.76 in 10.0 mi Calm Calm - N/A   Mostly Cloudy
7:51 AM 19.9 °F - 12.0 °F 71% 29.75 in 10.0 mi Calm Calm - N/A   Mostly Cloudy
8:51 AM 27.0 °F 18.0 °F 10.9 °F 51% 29.75 in 10.0 mi SSW 9.2 mph - N/A   Overcast
9:51 AM 30.9 °F 22.2 °F 10.0 °F 42% 29.73 in 10.0 mi SSW 10.4 mph - N/A   Overcast
10:51 AM 32.0 °F 21.2 °F 16.0 °F 52% 29.71 in 7.0 mi WSW 16.1 mph 21.9 mph 0.00 in Snow Light Snow
11:51 AM 33.1 °F 23.0 °F 19.0 °F 56% 29.70 in 10.0 mi WSW 15.0 mph 21.9 mph 0.00 in   Mostly Cloudy
12:51 PM 36.0 °F 25.0 °F 7.0 °F 30% 29.68 in 10.0 mi West 20.7 mph 32.2 mph N/A   Scattered Clouds
1:51 PM 37.0 °F 26.7 °F 7.0 °F 29% 29.70 in 10.0 mi WNW 19.6 mph 26.5 mph N/A   Partly Cloudy
2:51 PM 34.0 °F 20.8 °F 6.1 °F 31% 29.73 in 10.0 mi WNW 27.6 mph 35.7 mph N/A   Partly Cloudy
3:51 PM 34.0 °F 22.4 °F 3.9 °F 28% 29.76 in 10.0 mi West 20.7 mph 33.4 mph N/A   Partly Cloudy
4:51 PM 33.1 °F 20.3 °F 3.0 °F 28% 29.79 in 10.0 mi WNW 24.2 mph 31.1 mph N/A   Scattered Clouds
5:51 PM 30.9 °F 19.1 °F 5.0 °F 33% 29.84 in 10.0 mi WNW 18.4 mph 29.9 mph N/A   Mostly Cloudy
6:51 PM 27.0 °F 12.8 °F 10.9 °F 51% 29.92 in 10.0 mi WNW 21.9 mph 35.7 mph N/A   Clear
7:51 PM 24.1 °F 9.4 °F 7.0 °F 48% 29.98 in 10.0 mi NW 20.7 mph 28.8 mph N/A   Clear
8:51 PM 21.9 °F 6.2 °F 1.0 °F 40% 30.04 in 10.0 mi NW 21.9 mph 33.4 mph N/A   Clear
9:51 PM 19.0 °F 1.6 °F -2.9 °F 38% 30.09 in 10.0 mi NNW 24.2 mph 32.2 mph N/A   Clear
10:51 PM 17.1 °F 1.5 °F -6.0 °F 36% 30.15 in 10.0 mi NW 17.3 mph 28.8 mph N/A   Clear
11:51 PM 15.1 °F -2.5 °F -8.0 °F 36% 30.18 in 10.0 mi NW 20.7 mph 26.5 mph N/A   Clear